2023/08/22 00:00:00,38.2,22.5
2023/08/22 00:10:00,38.2,22.6
2023/08/22 00:20:00,38.2,22.5
2023/08/22 00:30:00,38.2,22.4
2023/08/22 00:40:00,38.2,22.6
2023/08/22 00:50:00,38.2,22.6
2023/08/22 01:00:00,38.2,22.4
2023/08/22 01:10:00,38.3,22.6
2023/08/22 01:20:00,38.3,22.4
2023/08/22 01:30:00,38.2,22.7
2023/08/22 01:40:00,38.3,22.5
2023/08/22 01:50:00,38.2,22.4
2023/08/22 02:00:00,38.3,22.6
2023/08/22 02:10:00,38.3,22.6
2023/08/22 02:20:00,38.3,22.7
2023/08/22 02:30:00,38.4,22.9
2023/08/22 02:40:00,38.3,22.8
2023/08/22 02:50:00,38.4,22.8
2023/08/22 03:00:00,38.3,22.7
2023/08/22 03:10:00,38.4,22.9
2023/08/22 03:20:00,38.4,22.6
2023/08/22 03:30:00,38.4,22.8
2023/08/22 03:40:00,38.4,22.8
2023/08/22 03:50:00,38.4,22.6
2023/08/22 04:00:00,38.5,22.9
2023/08/22 04:10:00,38.3,22.7
2023/08/22 04:20:00,38.4,22.8
2023/08/22 04:30:00,38.6,22.8
2023/08/22 04:40:00,38.8,22.7
2023/08/22 04:50:00,38.6,22.6
2023/08/22 05:00:00,38.5,22.9
2023/08/22 05:10:00,38.5,22.4
2023/08/22 05:20:00,38.5,22.4
2023/08/22 05:30:00,38.6,22.1
2023/08/22 05:40:00,38.5,22.4
2023/08/22 05:50:00,38.6,22.3
2023/08/22 06:00:00,38.5,22.3
2023/08/22 06:10:00,39.2,22.0
2023/08/22 06:20:00,38.7,22.3
2023/08/22 06:30:00,38.6,21.8
2023/08/22 06:40:00,39.4,22.3
2023/08/22 06:50:00,43.1,22.7
2023/08/22 07:00:00,---,22.6
2023/08/22 07:10:00,59.5,22.5
2023/08/22 07:20:00,59.3,22.4
2023/08/22 07:30:00,59.4,22.5
2023/08/22 07:40:00,---,23.9
2023/08/22 07:50:00,---,22.9
2023/08/22 08:00:00,59.4,23.3
2023/08/22 08:10:00,55.8,24.3
2023/08/22 08:20:00,59.5,24.9
2023/08/22 08:30:00,59.4,25.7
2023/08/22 08:40:00,55.3,26.5
2023/08/22 08:50:00,47.1,26.8
2023/08/22 09:00:00,46.7,27.4
2023/08/22 09:10:00,34.0,27.6
2023/08/22 09:20:00,31.8,27.7
2023/08/22 09:30:00,35.0,27.9
2023/08/22 09:40:00,---,28.0
2023/08/22 09:50:00,18.7,28.1
2023/08/22 10:00:00,26.5,27.9
2023/08/22 10:10:00,26.9,28.7
2023/08/22 10:20:00,27.1,28.7
2023/08/22 10:30:00,27.1,29.1
2023/08/22 10:40:00,21.2,29.5
2023/08/22 10:50:00,18.9,30.1
2023/08/22 11:00:00, 9.2,30.4
2023/08/22 11:10:00,---,30.1
2023/08/22 11:20:00,---,30.4
2023/08/22 11:30:00,10.0,30.0
2023/08/22 11:40:00,---,32.2
2023/08/22 11:50:00,---,31.0
2023/08/22 12:00:00,25.6,30.7
2023/08/22 12:10:00,---,32.0
2023/08/22 12:20:00, 0.0,30.8
2023/08/22 12:30:00,25.4,30.0
2023/08/22 12:40:00,25.7,31.1
2023/08/22 12:50:00, 4.1,30.3
2023/08/22 13:00:00,14.1,29.8
2023/08/22 13:10:00, 0.4,30.6
2023/08/22 13:20:00, 4.5,31.1
2023/08/22 13:30:00, 0.3,30.8
2023/08/22 13:40:00, 0.3,32.0
2023/08/22 13:50:00, 0.2,31.1
2023/08/22 14:00:00, 0.4,31.6
2023/08/22 14:10:00, 0.3,32.1
2023/08/22 14:20:00, 0.2,30.9
2023/08/22 14:30:00, 0.5,31.7
2023/08/22 14:40:00,25.7,30.7
2023/08/22 14:50:00,27.3,29.5
2023/08/22 15:00:00,26.8,31.7
2023/08/22 15:10:00,12.7,30.9
2023/08/22 15:20:00,18.8,31.5
2023/08/22 15:30:00,26.6,30.9
2023/08/22 15:40:00,26.4,32.5
2023/08/22 15:50:00,25.1,30.4
2023/08/22 16:00:00,25.8,31.5
2023/08/22 16:10:00,24.4,31.3
2023/08/22 16:20:00,26.7,29.1
2023/08/22 16:30:00,29.0,27.8
2023/08/22 16:40:00,30.7,27.4
2023/08/22 16:50:00,30.7,27.7
2023/08/22 17:00:00,30.4,28.0
2023/08/22 17:10:00,30.5,28.1
2023/08/22 17:20:00,29.7,28.2
2023/08/22 17:30:00,28.5,28.5
2023/08/22 17:40:00,27.8,27.9
2023/08/22 17:50:00,28.1,27.2
2023/08/22 18:00:00,28.2,26.8
2023/08/22 18:10:00,28.4,26.6
2023/08/22 18:20:00,28.3,26.1
2023/08/22 18:30:00,28.0,26.5
2023/08/22 18:40:00,28.1,25.8
2023/08/22 18:50:00,28.0,25.9
2023/08/22 19:00:00,27.9,25.9
2023/08/22 19:10:00,28.0,25.7
2023/08/22 19:20:00,28.0,25.0
2023/08/22 19:30:00,27.9,24.7
2023/08/22 19:40:00,27.8,24.7
2023/08/22 19:50:00,27.8,24.6
2023/08/22 20:00:00,27.8,24.2
2023/08/22 20:10:00,27.8,24.2
2023/08/22 20:20:00,27.6,24.3
2023/08/22 20:30:00,27.8,24.9
2023/08/22 20:40:00,27.7,24.7
2023/08/22 20:50:00,27.8,25.0
2023/08/22 21:00:00,27.7,25.5
2023/08/22 21:10:00,26.6,25.6
2023/08/22 21:20:00,27.1,25.3
2023/08/22 21:30:00,27.3,25.4
2023/08/22 21:40:00,27.6,24.5
2023/08/22 21:50:00,27.5,24.3
2023/08/22 22:00:00,27.7,24.0
2023/08/22 22:10:00,27.8,24.0
2023/08/22 22:20:00,28.3,24.2
2023/08/22 22:30:00,---,23.8
2023/08/22 22:40:00,---,24.0
2023/08/22 22:50:00,---,23.8
2023/08/22 23:00:00,64.2,23.5
2023/08/22 23:10:00,64.2,23.3
2023/08/22 23:20:00,39.1,23.0
2023/08/22 23:30:00,28.5,23.3
2023/08/22 23:40:00,28.8,23.1
2023/08/22 23:50:00,29.2,22.9
